Starlink 3089

operational
NORAD ID: 49166 Int'l Des: 2021-082 Owner: SPXS Country: US Constellation: starlink
LEOCIRCULAR

Über Starlink 3089

Beschreibung wird geladen...

Live-Position

3D-Globus wird geladen...

Nächste Überflüge

Höhenverlauf

Altitude vs Time

uPlot chart will show altitude changes over time

Zweizeiliger Elementsatz

1 49166U 21082AN 26063.03228070 .00000567 00000-0 56432-4 0 9990
2 49166 69.9983 289.4916 0002620 270.6840 89.4018 14.97527765246801
Epoch: 4. März 2026 • Age: 21 hours

Aktueller Status

Höhe 587.9 km
Geschwindigkeit 7.57 km/s
Subsatellitenpunkt -39.80°S, 7.25°E
Startdatum 14. Sept. 2021
Alter 4.4 years
Typ internet

Technische Details

Klassifizierung Payload
Masse 297.00 kg
Trockenmasse 275.00 kg
Gesamtmasse 297.00 kg
Länge 0.20 m
Durchmesser 2.80 m
Spannweite 9.00 m
Form Box + pan
Hersteller SPXS
Bus-Typ Starlink
Phasenstatus In Orbit
Besitzer/Staat SPXS/US

Große Konstellationen

Loading constellations...